Location: Unspecified
(0.0000°N, 0.0000°E)
Time: 23:18:35
(UTC+00:00)

ISS - Visible Passes

Search period start: 24 May 2015 00:00
Search period end: 03 June 2015 00:00
Orbit: 399 x 404 km, 51.6° (Epoch: 24 May)

Date Brightness Start Highest point End Pass type
(mag) Time Alt. Az. Time Alt. Az. Time Alt. Az.
28 May -1.2 19:04:40 10° S 19:05:21 14° S 19:05:21 14° S visible
29 May -0.9 19:47:48 10° WSW 19:50:27 23° NW 19:51:02 22° NW visible
30 May -3.1 18:54:00 10° SW 18:57:13 72° NW 19:00:25 10° NNE visible
01 Jun -0.1 18:44:35 10° W 18:46:57 18° NW 18:49:14 10° N visible
